Regional Weather Roundup
Issued by NWS

Home | Current Version | Previous Version | Graphics & Text | Print | Product List | Glossary On
Versions: 1 2 3 4 5 6 7 8 9 10 11 12 13 14 15 16 17 18 19 20 21 22 23 24 25 26 27 28 29 30 31 32 33 34 35 36 37 38 39 40 41 42 43 44 45 46 47 48 49 50
000
ASUS45 KBOU 221907
RWRCO

WEATHER ROUNDUP FOR COLORADO
NATIONAL WEATHER SERVICE DENVER/BOULDER CO
1200 PM MST SAT NOV 22 2014

NOTE: "FAIR" INDICATES FEW OR NO CLOUDS BELOW 12000 FEET WITH NO
SIGNIFICANT WEATHER AND/OR OBSTRUCTIONS TO VISIBILITY.

COZ001>005-013-030-031-222000-
...NORTHWEST COLORADO...

CITY           SKY/WX    TMP DP  RH WIND       PRES   REMARKS
CRAIG          MOSUNNY   49  21  33 SW28G33   29.84F
HAYDEN         MOSUNNY   46  19  34 SW13G18   29.84F
MEEKER         PTSUNNY   47  21  35 SW15G30   29.88F
MOUNT WERNER   NOT AVBL
STEAMBOAT SPGS MOSUNNY   40  21  46 W3        29.86F
WALDEN         CLOUDY    36  18  48 S18G28    29.84F
$$

COZ006>008-011-222000-
...WEST CENTRAL VALLEYS...

CITY           SKY/WX    TMP DP  RH WIND       PRES   REMARKS
GRAND JUNCTION PTSUNNY   42  22  44 W9        29.93F
MONTROSE       MOSUNNY   47  21  35 CALM      29.96F
EAGLE          MOSUNNY   41  21  45 CALM      29.93F
RIFLE          PTSUNNY   41  20  43 CALM      29.93F
DELTA          MOSUNNY   51  22  32 CALM      29.95F
NUCLA          MOSUNNY   52  21  30 S16G22    30.01F
$$

COZ017>023-064>068-222000-
...SOUTHWEST COLORADO...

CITY           SKY/WX    TMP DP  RH WIND       PRES   REMARKS
DURANGO        SUNNY     47  21  35 SW12      30.05F
CORTEZ         SUNNY     49  21  33 SW10      30.04F
PAGOSA SPRINGS SUNNY     44  18  35 SW9       30.05F
TELLURIDE      SUNNY     40  14  34 CALM      30.06F
WOLF CREEK PAS SUNNY     25  14  63 SW23G33   30.07F WCI  10
$$

COZ009-010-012-014-032>034-037-058>063-222000-
...CENTRAL COLORADO...

CITY           SKY/WX    TMP DP  RH WIND       PRES   REMARKS
ASPEN          SUNNY     42  16  34 VRB3      29.91F
BUENA VISTA    SUNNY     45  12  26 W33G41    29.85F
COPPER MTN     SUNNY     32   9  37 SW9G17    29.97F WCI  24
BERTHOUD PASS  FAIR      21  18  86 NW31G37   29.92S WCI   3
COTTONWOOD PAS SUNNY     41   1  19 W20G37    29.90F
GUNNISON       SUNNY     25  12  58 SE3       30.07F
KREMMLING      SUNNY     46  18  31 SW24G30   29.87F
LEADVILLE      SUNNY     36   9  32 N16       29.89F
MONARCH PASS   SUNNY     21  14  73 W54G63    30.05F WCI  -2
SALIDA         SUNNY     50  12  22 SW25G36   29.93F
SUNLIGHT       MOSUNNY   32  21  64 CALM      29.99F
WILKERSON PASS MOSUNNY   34   9  35 SW18G26   29.87F WCI  23
$$

COZ069>075-222000-
...SAN LUIS VALLEY/SANGRE DE CRISTO MOUNTAINS...

CITY           SKY/WX    TMP DP  RH WIND       PRES   REMARKS
ALAMOSA        SUNNY     41  17  38 CALM      29.99F
LA VETA PASS   SUNNY     34  18  51 S16G37    29.90F WCI  23
SAGUACHE       MOSUNNY   37  18  44 SE8       29.99F
$$

COZ035-036-038>040-222000-
...NORTHERN COLORADO FRONT RANGE...

CITY           SKY/WX    TMP DP  RH WIND       PRES   REMARKS
DENVER INTL AP PTSUNNY   60  14  16 SW14      29.62F
DMNS CITY PARK   N/A     63  10  12 SE3G9     29.60F
AURORA         PTSUNNY   60  12  15 SW12G17   29.64F
FRONT RANGE AP PTSUNNY   63  19  19 SW8       29.64F
ERIE MUNI ARPT MOSUNNY   64  10  12 W12       29.60F
BOULDER MUN AP MOSUNNY   57  14  18 CALM      29.61F
CENTENNIAL     PTSUNNY   59  12  15 SW16      29.64F
BROOMFIELD     PTSUNNY   61  14  16 W25G35    29.63F
FORT COLLINS   PTSUNNY   39  25  56 NE9       29.64F
LONGMONT       PTSUNNY   60  17  18 W24G37    29.61F
$$

COZ041-046-047-076>085-087-088-222000-
...PIKES PEAK/PALMER DIVIDE AND SOUTHERN FOOTHILLS...

CITY           SKY/WX    TMP DP  RH WIND       PRES   REMARKS
COLO. SPRINGS  PTSUNNY   59  10  14 SE12G17   29.70F
A. F. ACADEMY  MOSUNNY   59   4  11 NW12G22   29.70F
ELLICOTT       NOT AVBL
FALCON         NOT AVBL
FORT CARSON    SUNNY     57  17  21 VRB5      29.69F
LIMON          SUNNY     61   5  10 W10       29.68F
MONUMENT HILL  MOSUNNY   55   9  15 W13G21    29.71F
TRINIDAD       SUNNY     55  21  26 E5        29.76F
$$

COZ042>045-048>051-090-091-222000-
...NORTHEAST COLORADO...

CITY           SKY/WX    TMP DP  RH WIND       PRES   REMARKS
GREELEY ARPT   CLOUDY    45  27  49 CALM      29.62F
AKRON          MOSUNNY   62  11  13 SW13      29.63F
BURLINGTON     SUNNY     63  16  16 SW22      29.67F
WRAY           PTSUNNY   68  11  11 SW17      29.63F
STERLING       MOSUNNY   57  28  33 S3        29.62F
HOLYOKE        PTSUNNY   64  14  14 SW9       29.62F
FORT MORGAN    MOSUNNY   56  21  25 CALM      29.63F
$$

COZ086-089-092>099-222000-
...SOUTHEAST COLORADO...

CITY           SKY/WX    TMP DP  RH WIND       PRES   REMARKS
PUEBLO         SUNNY     62  20  19 W15       29.70F
LA JUNTA       SUNNY     62  27  26 SW12      29.70F
LAMAR          SUNNY     63  26  24 SW12      29.70F
SPRINGFIELD      N/A     63  18  17 SW15G22   29.73F
$$


USA.gov is the U.S. government's official web portal to all federal, state and local government web resources and services.